Home   Weather   Villeurbanne   Past weeks

Flag for France Past Weather in Villeurbanne, Rhône-Alpes, France — Yesterday and Last 2 Weeks

Now
27 °F

Ice fog.


Feels Like: 27 °F
Forecast: 31 / 39 °F
Wind: No wind

Location: Lyon / Bron

Current Time: Dec 11, 2016 at 3:26:43 am

Latest Report: Dec 11, 2016 at 3:00 am


Visibility: 2 mi

Pressure: 30.30 "Hg

Humidity: 100%

Dew Point: 27 °F

Location of VilleurbanneLocation

Past Weather in Villeurbanne — Graph

°F

Villeurbanne Temperature Yesterday

Maximum temperature yesterday: 48 °F (at 3:30 pm)
Minimum temperature yesterday: 27 °F (at 5:00 am)
Average temperature yesterday: 33 °F

High & Low Weather Summary for the Past Weeks

 TemperatureHumidityPressure
High59 °F (Nov 26, 2:30 pm)100% (Nov 26, 4:30 am)30.60 "Hg (Nov 26, 4:30 am)
Low27 °F (Dec 10, 5:00 am)57% (Nov 28, 6:00 pm)29.95 "Hg (Nov 28, 1:00 am)
Average37 °F88%30.28 "Hg
* Reported Nov 26 2:00 am — Dec 11 2:00 am, Villeurbanne, Weather by CustomWeather, © 2016

Note: Actual official high and low records may vary slightly from our data, if they occured in-between our weather recording intervals... More about our weather records

Advertising

Villeurbanne Weather History for the Previous 24 Hours

Scroll right to see more
 ConditionsComfort  
Time TempWeatherWind HumidityBarometerVisibility
2:00 am
Sun, Dec 11
28 °FIce fog.2 mph93%30.30 "Hg2 mi
1:30 am28 °FIce fog.No wind93%30.30 "Hg2 mi
1:00 am28 °FIce fog.No wind93%30.30 "Hg3 mi
12:30 am28 °FIce fog.No wind93%30.30 "Hg2 mi
12:00 am28 °FIce fog.2 mph93%30.30 "Hg3 mi
11:30 pm
Sat, Dec 10
28 °FIce fog.1 mph93%30.30 "Hg3 mi
11:00 pm28 °FIce fog.No wind93%30.30 "Hg3 mi
10:30 pm30 °FIce fog.No wind93%30.30 "Hg3 mi
10:00 pm30 °FIce fog.No wind93%30.30 "Hg3 mi
9:30 pm30 °FIce fog.1 mph93%30.30 "Hg3 mi
9:00 pm32 °FIce fog.2 mph87%30.33 "Hg3 mi
8:30 pm32 °FIce fog.No wind87%30.33 "Hg3 mi
8:00 pm34 °FClear.No wind87%30.33 "Hg4 mi
7:30 pm34 °FClear.No wind87%30.33 "Hg4 mi
7:00 pm34 °FClear.No wind87%30.33 "Hg4 mi
6:30 pm36 °FClear.No wind81%30.33 "Hg5 mi
6:00 pm37 °FClear.No wind75%30.33 "Hg5 mi
5:30 pm39 °FClear.No wind70%30.33 "Hg10 mi
5:00 pm43 °FClear.No wind61%30.33 "Hg10 mi
4:30 pm45 °FSunny.No wind61%30.33 "Hg10 mi
4:00 pm46 °FSunny.No wind57%30.33 "Hg10 mi
3:30 pm48 °FSunny.1 mph58%30.33 "Hg10 mi
3:00 pm46 °FSunny.2 mph62%30.33 "Hg10 mi
2:30 pm46 °FClear.No wind62%30.33 "Hg6 mi
2:00 pm45 °FClear.1 mph66%30.36 "Hg6 mi
1:30 pm43 °FClear.3 mph76%30.36 "Hg4 mi
1:00 pm41 °FClear.2 mph81%30.36 "Hg4 mi
12:30 pm39 °FClear.No wind87%30.39 "Hg4 mi
12:00 pm36 °FFog.No wind93%30.39 "Hg3 mi
11:30 am34 °FFog.2 mph93%30.39 "Hg2 mi
11:00 am34 °FFog.3 mph93%30.42 "Hg2 mi
10:30 am32 °FIce fog.No wind100%30.42 "Hg2 mi
10:00 am32 °FIce fog.No wind100%30.42 "Hg2 mi
9:30 am30 °FIce fog.No wind93%30.42 "Hg2 mi
9:00 am28 °FIce fog.2 mph100%30.39 "Hg2 mi
8:30 am27 °FIce fog.No wind93%30.39 "Hg2 mi
8:00 am27 °FIce fog.No wind93%30.39 "Hg2 mi
7:30 am27 °FIce fog.No wind93%30.39 "Hg2 mi
7:00 am27 °FIce fog.No wind93%30.39 "Hg2 mi
6:30 am27 °FIce fog.No wind93%30.39 "Hg2 mi
6:00 am27 °FLight fog.No wind93%30.39 "Hg1 mi
5:30 am27 °FLow clouds.No wind93%30.39 "Hg1 mi
5:00 am27 °FIce fog.No wind100%30.39 "Hg0 mi
4:30 am28 °FIce fog.No wind93%30.39 "Hg0 mi
4:00 am28 °FIce fog.No wind93%30.42 "Hg0 mi
3:30 am28 °FIce fog.No wind93%30.42 "Hg0 mi
3:00 am28 °FIce fog.No wind93%30.42 "Hg2 mi
Weather by CustomWeather, © 2016

See weather overviewHow to use our weather pages